Weather History for KPQL - November, 2013

Change the Weather History Date:

Tuesday, November 26, 2013

  Actual Average Record
Temperature  
Mean Temperature 56 °F -  
Max Temperature 68 °F 68 °F 81 °F (2001)
Min Temperature 44 °F 50 °F 29 °F (1991)
Degree Days  
Heating Degree Days 9    
Growing Degree Days 6 (Base 50)    
Moisture  
Dew Point 52 °F    
Average Humidity 92    
Maximum Humidity 100    
Minimum Humidity 80    
Precipitation  
Precipitation 0.87 in - - ()
Sea Level Pressure  
Sea Level Pressure 29.82 in    
Wind  
Wind Speed 13 mph (North)    
Max Wind Speed 21 mph    
Max Gust Speed 33 mph    
Visibility 7 miles    
Events Rain    
Averages and records for this station are not official NWS values.
T = Trace of Precipitation, MM = Missing Value Source: NWS Daily Summary

Daily Weather History Graph

Daily Weather History Graph

Search for Another Location

Airport or City:

Trip Planner

Search our weather history database for the weather conditions in past years. The results will help you decide how hot, cold, wet, or windy it might be!

Date:

Astronomy

Nov. 26, 2013 Rise Set
Actual Time 6:29 AM CST 4:53 PM CST
Civil Twilight 6:03 AM CST 5:19 PM CST
Nautical Twilight 5:34 AM CST 5:48 PM CST
Astronomical Twilight 5:05 AM CST 6:17 PM CST
Moon No Moon Rise 12:35 PM CST (11/26)
Length of Visible Light 11h 15m
Length of Day
10h 23m
Last Quarter, 41% of the Moon is Illuminated
Nov 26
Last Quarter
Dec 2
New
Dec 9
First Quarter
Dec 17
Full
Dec 25
Last Quarter

Hourly Weather History & Observations

Time (CST) Temp. Windchill Dew Point Humidity Pressure Visibility Wind Dir Wind Speed Gust Speed Precip Events Conditions
12:08 AM 66.2 °F - 64.4 °F 94% 29.86 in 4.0 mi SE 20.7 mph 28.8 mph 0.03 in Rain Rain
12:36 AM 66.2 °F - 66.2 °F 100% 29.86 in 2.5 mi SE 13.8 mph 21.9 mph 0.11 in Rain Heavy Rain
12:45 AM 66.2 °F - 66.2 °F 100% 29.85 in 2.5 mi SE 10.4 mph - 0.15 in Rain Heavy Rain
12:49 AM 66.2 °F - 66.2 °F 100% 29.85 in 3.0 mi SE 10.4 mph 20.7 mph 0.16 in Rain Heavy Rain
12:53 AM 66.9 °F - 66.0 °F 97% 29.85 in 3.0 mi ESE 9.2 mph 20.7 mph 0.18 in Rain Heavy Rain
1:04 AM 66.2 °F - 66.2 °F 100% 29.84 in 6.0 mi SE 11.5 mph - 0.01 in Rain Light Rain
1:22 AM 66.2 °F - 66.2 °F 100% 29.81 in 4.0 mi SE 9.2 mph 19.6 mph 0.04 in Rain Heavy Rain
1:36 AM 66.2 °F - 66.2 °F 100% 29.82 in 7.0 mi WSW 8.1 mph - 0.04 in Rain Light Rain
1:53 AM 66.9 °F - 64.9 °F 93% 29.82 in 6.0 mi SE 9.2 mph 18.4 mph 0.04 in   Overcast
2:39 AM 66.2 °F - 66.2 °F 100% 29.76 in 4.0 mi ESE 10.4 mph 23.0 mph 0.05 in Rain Light Rain
2:53 AM 66.9 °F - 66.0 °F 97% 29.75 in 9.0 mi ESE 13.8 mph 21.9 mph 0.05 in Rain Light Rain
3:53 AM 68.0 °F - 66.9 °F 96% 29.72 in 3.0 mi SE 18.4 mph 26.5 mph 0.08 in Rain Heavy Rain
4:19 AM 68.0 °F - 66.2 °F 94% 29.71 in 2.0 mi SE 13.8 mph 23.0 mph 0.08 in Rain Heavy Rain
4:28 AM 68.0 °F - 66.2 °F 94% 29.74 in 7.0 mi NW 12.7 mph 25.3 mph 0.08 in Rain Light Rain
4:43 AM 51.8 °F - 50.0 °F 94% 29.76 in 4.0 mi NNW 17.3 mph 33.4 mph 0.14 in Rain Heavy Rain
4:51 AM 51.8 °F - 50.0 °F 94% 29.77 in 4.0 mi NNW 13.8 mph 24.2 mph 0.15 in Rain Light Rain
4:53 AM 51.1 °F - 48.9 °F 92% 29.78 in 5.0 mi NNW 13.8 mph 21.9 mph 0.16 in Rain Light Rain
5:36 AM 48.2 °F - 46.4 °F 93% 29.77 in 1.8 mi North 16.1 mph 28.8 mph 0.22 in Rain Heavy Rain
5:47 AM 46.4 °F 40.1 °F 46.4 °F 100% 29.77 in 3.0 mi North 15.0 mph 23.0 mph 0.27 in Rain Heavy Rain
5:53 AM 46.9 °F - 46.0 °F 97% 29.78 in 4.0 mi North 17.3 mph 24.2 mph 0.27 in Rain Light Rain
6:53 AM 46.9 °F - 45.0 °F 93% 29.78 in 10.0 mi North 12.7 mph 21.9 mph 0.02 in   Overcast
7:49 AM 48.2 °F - 44.6 °F 87% 29.77 in 10.0 mi North 16.1 mph 27.6 mph N/A   Overcast
7:53 AM 48.0 °F - 45.0 °F 89% 29.78 in 10.0 mi NNE 15.0 mph 25.3 mph N/A   Overcast
8:53 AM 52.0 °F - 48.9 °F 89% 29.75 in 10.0 mi North 16.1 mph 23.0 mph N/A   Mostly Cloudy
9:05 AM 53.6 °F - 48.2 °F 82% 29.76 in 10.0 mi NNE 11.5 mph 20.7 mph N/A   Mostly Cloudy
9:53 AM 55.9 °F - 51.1 °F 84% 29.75 in 10.0 mi NNE 11.5 mph - N/A   Mostly Cloudy
10:20 AM 57.2 °F - 51.8 °F 82% 29.80 in 10.0 mi Variable 4.6 mph - N/A   Overcast
10:53 AM 55.9 °F - 52.0 °F 87% 29.81 in 10.0 mi WNW 9.2 mph - N/A   Overcast
11:11 AM 53.6 °F - 51.8 °F 94% 29.81 in 10.0 mi NNW 8.1 mph 19.6 mph N/A   Overcast
11:53 AM 52.0 °F - 50.0 °F 93% 29.78 in 10.0 mi NNW 13.8 mph 20.7 mph N/A   Overcast
12:51 PM 51.8 °F - 48.2 °F 88% 29.76 in 10.0 mi North 17.3 mph - N/A   Overcast
12:53 PM 52.0 °F - 48.0 °F 86% 29.77 in 10.0 mi North 16.1 mph - N/A   Overcast
1:53 PM 51.1 °F - 46.9 °F 86% 29.78 in 10.0 mi NNW 11.5 mph 17.3 mph 0.00 in   Overcast
2:53 PM 51.1 °F - 46.0 °F 83% 29.77 in 10.0 mi North 10.4 mph 20.7 mph N/A   Overcast
3:11 PM 51.8 °F - 46.4 °F 82% 29.78 in 10.0 mi North 12.7 mph 19.6 mph N/A   Overcast
3:23 PM 51.8 °F - 46.4 °F 82% 29.77 in 10.0 mi NNW 12.7 mph 19.6 mph N/A   Overcast
3:53 PM 52.0 °F - 46.0 °F 80% 29.77 in 10.0 mi North 12.7 mph 18.4 mph N/A   Overcast
4:27 PM 51.8 °F - 46.4 °F 82% 29.78 in 10.0 mi NNW 8.1 mph - N/A   Overcast
4:53 PM 51.1 °F - 46.9 °F 86% 29.83 in 10.0 mi NW 3.5 mph - N/A   Overcast
5:35 PM 50.0 °F - 48.2 °F 94% 29.85 in 3.0 mi WNW 5.8 mph - 0.01 in Rain Light Rain
5:53 PM 50.0 °F - 48.0 °F 93% 29.86 in 4.0 mi NW 4.6 mph - 0.01 in Rain Light Rain
6:53 PM 48.9 °F - 46.9 °F 93% 29.88 in 10.0 mi NW 8.1 mph - 0.00 in   Overcast
7:12 PM 48.2 °F - 46.4 °F 93% 29.88 in 10.0 mi NW 8.1 mph - 0.00 in Rain Light Rain
7:53 PM 48.0 °F - 46.0 °F 93% 29.89 in 10.0 mi NNW 10.4 mph - 0.00 in   Overcast
8:46 PM 46.4 °F 41.5 °F 44.6 °F 93% 29.89 in 6.0 mi NNW 10.4 mph 19.6 mph 0.00 in   Overcast
8:53 PM 46.0 °F 41.0 °F 44.1 °F 93% 29.88 in 6.0 mi NW 10.4 mph 18.4 mph 0.00 in   Overcast
9:53 PM 45.0 °F 40.6 °F 43.0 °F 93% 29.92 in 9.0 mi NNW 8.1 mph 24.2 mph 0.00 in Rain Light Rain
10:23 PM 44.6 °F 38.4 °F 42.8 °F 93% 29.92 in 7.0 mi NNW 12.7 mph 19.6 mph 0.01 in Rain Rain
10:29 PM 44.6 °F 39.7 °F 42.8 °F 93% 29.92 in 5.0 mi NNW 9.2 mph 19.6 mph 0.01 in Rain Light Rain
10:36 PM 44.6 °F 38.8 °F 42.8 °F 93% 29.92 in 8.0 mi NNW 11.5 mph 18.4 mph 0.02 in Rain Light Rain
10:53 PM 45.0 °F 40.6 °F 43.0 °F 93% 29.94 in 10.0 mi NNW 8.1 mph 17.3 mph 0.02 in Rain Light Rain
11:53 PM 44.1 °F 39.5 °F 42.1 °F 93% 29.96 in 6.0 mi NNW 8.1 mph - 0.04 in Rain Rain